DW7589 Weather Reports


time (UTC)temp
F
wind
direction
speed
knots
gust
knots
rain 1hr
in
rain 24hr
in
rain mn
in
humidity
%
barometer
mb
20260504201426 80 0 0.0 0.0 0.00 0.00 0.00 60 1010.0
20260504200927 80 0 0.0 0.0 0.00 0.00 0.00 61 1010.1
20260504200425 80 0 0.0 0.0 0.00 0.00 0.00 60 1010.4
20260504195926 79 0 0.0 0.0 0.00 0.00 0.00 60 1010.3
20260504194926 79 0 0.0 0.0 0.00 0.00 0.00 60 1010.5
20260504194426 79 0 0.0 0.0 0.00 0.00 0.00 59 1010.4
20260504193926 80 0 0.0 0.0 0.00 0.00 0.00 59 1010.6
20260504193426 80 0 0.0 0.0 0.00 0.00 0.00 61 1010.6
20260504192426 79 0 0.0 0.0 0.00 0.00 0.00 60 1010.7
20260504191925 80 0 0.0 0.0 0.00 0.00 0.00 60 1010.8
20260504191427 79 0 0.0 0.0 0.00 0.00 0.00 61 1010.9
20260504190927 79 0 0.0 0.0 0.00 0.00 0.00 60 1011.0
20260504190426 79 0 0.0 0.0 0.00 0.00 0.00 59 1011.0
20260504185926 79 0 0.0 0.0 0.00 0.00 0.00 61 1011.1
20260504185427 78 0 0.0 0.0 0.00 0.00 0.00 60 1011.1
20260504184426 78 0 0.0 0.0 0.00 0.00 0.00 60 1011.1
20260504183926 78 0 0.0 0.0 0.00 0.00 0.00 60 1011.3
20260504183426 78 0 0.0 0.0 0.00 0.00 0.00 60 1011.4
20260504182926 78 0 0.0 0.0 0.00 0.00 0.00 61 1011.4
20260504182427 78 0 0.0 0.0 0.00 0.00 0.00 60 1011.4
20260504181927 78 0 0.0 0.0 0.00 0.00 0.00 61 1011.5
20260504180926 77 0 0.0 0.0 0.00 0.00 0.00 63 1011.7
20260504180426 77 0 0.0 0.0 0.00 0.00 0.00 63 1011.9
20260504175926 77 0 0.0 0.0 0.00 0.00 0.00 62 1012.0
20260504175428 77 0 0.0 0.0 0.00 0.00 0.00 63 1012.2
20260504174927 76 0 0.0 0.0 0.00 0.00 0.00 64 1012.3
20260504174426 77 0 0.0 0.0 0.00 0.00 0.00 63 1012.3
20260504173926 76 0 0.0 0.0 0.00 0.00 0.00 63 1012.3
20260504173427 76 0 0.0 0.0 0.00 0.00 0.00 64 1012.3
20260504172926 76 0 0.0 0.0 0.00 0.00 0.00 64 1012.4
20260504172427 76 0 0.0 0.0 0.00 0.00 0.00 64 1012.4
20260504171927 76 0 0.0 0.0 0.00 0.00 0.00 64 1012.6
20260504170926 76 0 0.0 0.0 0.00 0.00 0.00 63 1012.8
20260504170427 75 0 0.0 0.0 0.00 0.00 0.00 66 1012.9
20260504160428 72 0 0.0 0.0 0.00 0.00 0.00 67 1013.4
20260504150926 70 0 0.0 0.0 0.00 0.00 0.00 70 1014.0
20260504150427 70 0 0.0 0.0 0.00 0.00 0.00 69 1014.0
20260504140426 66 0 0.0 0.0 0.00 0.00 0.00 74 1014.2
20260504130426 61 0 0.0 0.0 0.00 0.00 0.00 86 1014.2
20260504100426 60 0 0.0 0.0 0.00 0.00 0.00 83 1014.1
20260504081926 62 0 0.0 0.0 0.00 0.00 0.00 77 1014.4
20260504081427 62 0 0.0 0.0 0.00 0.00 0.00 76 1014.4
20260504080927 62 0 0.0 0.0 0.00 0.00 0.00 76 1014.5
20260504080427 63 0 0.0 0.0 0.00 0.00 0.00 75 1014.5
20260504050427 65 0 0.0 0.0 0.00 0.00 0.00 65 1016.0
20260504045928 65 0 0.0 0.0 0.00 0.00 0.00 65 1016.0
20260504045427 65 0 0.0 0.0 0.00 0.00 0.00 65 1016.1
20260504044427 65 0 0.0 0.0 0.00 0.00 0.00 64 1016.2
20260504043927 66 0 0.0 0.0 0.00 0.00 0.00 64 1016.2
20260504043428 66 0 0.0 0.0 0.00 0.00 0.00 63 1016.2
20260504042927 66 0 0.0 0.0 0.00 0.00 0.00 63 1016.2
20260504042428 66 0 0.0 0.0 0.00 0.00 0.00 62 1016.2
20260504041427 67 0 0.0 0.0 0.00 0.00 0.00 62 1016.4
20260504040927 67 0 0.0 0.0 0.00 0.00 0.00 61 1016.4
20260504040427 67 0 0.0 0.0 0.00 0.00 0.00 61 1016.3
20260504035927 67 0 0.0 0.0 0.00 0.00 0.00 61 1016.4
20260504035427 67 0 0.0 0.0 0.00 0.00 0.00 61 1016.4
20260504034927 67 0 0.0 0.0 0.00 0.00 0.00 60 1016.5
20260504034427 68 0 0.0 0.0 0.00 0.00 0.00 60 1016.5
20260504033927 68 0 0.0 0.0 0.00 0.00 0.00 60 1016.4
20260504033427 68 0 0.0 0.0 0.00 0.00 0.00 60 1016.4
20260504032927 68 0 0.0 0.0 0.00 0.00 0.00 60 1016.4
20260504032426 68 0 0.0 0.0 0.00 0.00 0.00 60 1016.4
20260504031927 68 0 0.0 0.0 0.00 0.00 0.00 60 1016.2
20260504031427 68 0 0.0 0.0 0.00 0.00 0.00 60 1016.2
20260504030927 68 0 0.0 0.0 0.00 0.00 0.00 59 1016.3
20260504030428 68 0 0.0 0.0 0.00 0.00 0.00 60 1016.1
20260504025929 68 0 0.0 0.0 0.00 0.00 0.00 60 1016.1
20260504024927 68 0 0.0 0.0 0.00 0.00 0.00 59 1016.2
20260504024427 68 0 0.0 0.0 0.00 0.00 0.00 59 1016.3
20260504023927 69 0 0.0 0.0 0.00 0.00 0.00 59 1016.3
20260504023427 69 0 0.0 0.0 0.00 0.00 0.00 59 1016.2
20260504022928 69 0 0.0 0.0 0.00 0.00 0.00 59 1016.2
20260504022427 69 0 0.0 0.0 0.00 0.00 0.00 59 1016.2
20260504021927 69 0 0.0 0.0 0.00 0.00 0.00 59 1016.2
20260504021427 69 0 0.0 0.0 0.00 0.00 0.00 58 1016.1
20260504020928 69 0 0.0 0.0 0.00 0.00 0.00 58 1016.1
20260504020428 69 0 0.0 0.0 0.00 0.00 0.00 58 1016.1
20260504015928 69 0 0.0 0.0 0.00 0.00 0.00 57 1016.0
20260504014928 70 0 0.0 0.0 0.00 0.00 0.00 56 1015.9
20260504013928 70 0 0.0 0.0 0.00 0.00 0.00 54 1015.8
20260504013428 71 0 0.0 0.0 0.00 0.00 0.00 53 1015.8
20260504012927 71 0 0.0 0.0 0.00 0.00 0.00 52 1015.8
20260504012427 71 0 0.0 0.0 0.00 0.00 0.00 51 1015.9
20260504011428 72 0 0.0 0.0 0.00 0.00 0.00 50 1015.9
20260504010427 72 0 0.0 0.0 0.00 0.00 0.00 48 1015.9
20260504005927 73 0 0.0 0.0 0.00 0.00 0.00 47 1015.9
20260504005427 73 0 0.0 0.0 0.00 0.00 0.00 46 1015.8
20260504004927 73 0 0.0 0.0 0.00 0.00 0.00 45 1015.8
20260504004429 74 0 0.0 0.0 0.00 0.00 0.00 44 1015.8
20260504003427 75 0 0.0 0.0 0.00 0.00 0.00 42 1016.0
20260504002929 75 0 0.0 0.0 0.00 0.00 0.00 41 1016.1
20260504002428 76 0 0.0 0.0 0.00 0.00 0.00 41 1016.0
20260504001927 76 0 0.0 0.0 0.00 0.00 0.00 40 1015.9
20260504001427 76 0 0.0 0.0 0.00 0.00 0.00 40 1016.0
20260504000927 76 0 0.0 0.0 0.00 0.00 0.00 40 1016.0
20260504000431 77 0 0.0 0.0 0.00 0.00 0.00 40 1016.1
20260503235927 77 0 0.0 0.0 0.00 0.00 0.00 39 1016.2
20260503235427 77 0 0.0 0.0 0.00 0.00 0.00 39 1016.2
20260503234927 77 0 0.0 0.0 0.00 0.00 0.00 40 1016.3
20260503234428 77 0 0.0 0.0 0.00 0.00 0.00 40 1016.3
20260503233927 77 0 0.0 0.0 0.00 0.00 0.00 40 1016.3
20260503233427 77 0 0.0 0.0 0.00 0.00 0.00 41 1016.4
20260503232927 77 0 0.0 0.0 0.00 0.00 0.00 40 1016.4
20260503232427 77 0 0.0 0.0 0.00 0.00 0.00 40 1016.4
20260503231928 78 0 0.0 0.0 0.00 0.00 0.00 39 1016.5
20260503231428 78 0 0.0 0.0 0.00 0.00 0.00 39 1016.5
20260503230928 78 0 0.0 0.0 0.00 0.00 0.00 40 1016.5
20260503230428 78 0 0.0 7.8 0.00 0.00 0.00 39 1016.5
20260503225927 78 0 0.0 7.8 0.00 0.00 0.00 38 1016.5
20260503225427 78 0 0.0 4.3 0.00 0.00 0.00 40 1016.6
20260503224928 78 169 0.9 4.3 0.00 0.00 0.00 39 1016.8
20260503224428 78 164 0.9 4.3 0.00 0.00 0.00 37 1016.7
20260503223927 78 165 0.9 4.3 0.00 0.00 0.00 36 1016.8
20260503223428 78 166 0.9 6.1 0.00 0.00 0.00 36 1016.8
20260503222928 78 164 0.9 6.1 0.00 0.00 0.00 36 1016.7
20260503221928 79 169 1.7 8.7 0.00 0.00 0.00 35 1016.9
20260503221428 79 156 1.7 8.7 0.00 0.00 0.00 34 1016.8
20260503220927 79 152 2.6 7.8 0.00 0.00 0.00 34 1017.0
20260503220429 79 155 3.5 7.0 0.00 0.00 0.00 36 1017.0
20260503215927 79 157 2.6 8.7 0.00 0.00 0.00 34 1017.0
20260503215428 79 162 2.6 8.7 0.00 0.00 0.00 35 1017.0
20260503214428 79 153 4.3 8.7 0.00 0.00 0.00 34 1017.3
20260503212929 79 164 2.6 8.7 0.00 0.00 0.00 34 1017.5
20260503212428 79 164 2.6 9.6 0.00 0.00 0.00 36 1017.6
20260503211428 80 162 1.7 7.0 0.00 0.00 0.00 36 1017.9
20260503210928 80 162 2.6 7.8 0.00 0.00 0.00 35 1018.0
20260503210427 80 162 2.6 7.8 0.00 0.00 0.00 34 1018.0
20260503205928 80 166 0.9 5.2 0.00 0.00 0.00 35 1018.0
20260503203928 80 162 2.6 7.8 0.00 0.00 0.00 33 1018.3
20260503203429 80 173 1.7 7.0 0.00 0.00 0.00 34 1018.5
20260503202428 80 194 1.7 12.2 0.00 0.00 0.00 36 1018.6
20260503201928 80 196 1.7 6.1 0.00 0.00 0.00 35 1018.6